Year,Month,Day,Hour,Minute,Value (Times are PST for windgust in km/hr)
2011,07,08,00,00,4.80
2011,07,08,00,01,4.80
2011,07,08,00,02,6.40
2011,07,08,00,03,6.40
2011,07,08,00,04,3.20
2011,07,08,00,05,9.60
2011,07,08,00,06,8.10
2011,07,08,00,07,9.60
2011,07,08,00,08,9.60
2011,07,08,00,09,9.60
2011,07,08,00,10,11.30
2011,07,08,00,11,16.10
2011,07,08,00,12,9.60
2011,07,08,00,13,9.60
2011,07,08,00,14,8.10
2011,07,08,00,15,16.10
2011,07,08,00,16,9.60
2011,07,08,00,17,9.60
2011,07,08,00,18,11.30
2011,07,08,00,19,3.20
2011,07,08,00,20,4.80
2011,07,08,00,21,8.10
2011,07,08,00,22,1.60
2011,07,08,00,23,6.40
2011,07,08,00,24,9.60
2011,07,08,00,25,3.20
2011,07,08,00,26,22.50
2011,07,08,00,27,16.10
2011,07,08,00,28,8.10
2011,07,08,00,29,11.30
2011,07,08,00,30,16.10
2011,07,08,00,31,16.10
2011,07,08,00,32,9.60
2011,07,08,00,33,9.60
2011,07,08,00,34,11.30
2011,07,08,00,35,8.10
2011,07,08,00,36,6.40
2011,07,08,00,37,16.10
2011,07,08,00,38,3.20
2011,07,08,00,39,4.80
2011,07,08,00,40,3.20
2011,07,08,00,41,11.30
2011,07,08,00,42,8.10
2011,07,08,00,43,8.10
2011,07,08,00,44,1.60
2011,07,08,00,45,6.40
2011,07,08,00,46,3.20
2011,07,08,00,47,11.30
2011,07,08,00,48,14.50
2011,07,08,00,49,9.60
2011,07,08,00,50,8.10
2011,07,08,00,51,8.10
2011,07,08,00,52,6.40
2011,07,08,00,53,3.20
2011,07,08,00,54,9.60
2011,07,08,00,55,9.60
2011,07,08,00,56,6.40
2011,07,08,00,57,3.20
2011,07,08,00,58,6.40
2011,07,08,00,59,11.30
2011,07,08,01,00,11.30
2011,07,08,01,01,9.60
2011,07,08,01,02,12.90
2011,07,08,01,03,24.20
2011,07,08,01,04,19.30
2011,07,08,01,05,11.30
2011,07,08,01,06,14.50
2011,07,08,01,07,4.80
2011,07,08,01,08,6.40
2011,07,08,01,09,11.30
2011,07,08,01,10,8.10
2011,07,08,01,11,12.90
2011,07,08,01,12,16.10
2011,07,08,01,13,12.90
2011,07,08,01,14,3.20
2011,07,08,01,15,11.30
2011,07,08,01,16,9.60
2011,07,08,01,17,9.60
2011,07,08,01,18,16.10
2011,07,08,01,19,16.10
2011,07,08,01,20,8.10
2011,07,08,01,21,9.60
2011,07,08,01,22,8.10
2011,07,08,01,23,3.20
2011,07,08,01,24,6.40
2011,07,08,01,25,9.60
2011,07,08,01,26,8.10
2011,07,08,01,27,6.40
2011,07,08,01,28,16.10
2011,07,08,01,29,1.60
2011,07,08,01,30,3.20
2011,07,08,01,31,3.20
2011,07,08,01,32,9.60
2011,07,08,01,33,3.20
2011,07,08,01,34,3.20
2011,07,08,01,35,3.20
2011,07,08,01,36,8.10
2011,07,08,01,37,8.10
2011,07,08,01,38,14.50
2011,07,08,01,39,9.60
2011,07,08,01,40,14.50
2011,07,08,01,41,11.30
2011,07,08,01,42,17.70
2011,07,08,01,43,11.30
2011,07,08,01,44,4.80
2011,07,08,01,45,1.60
2011,07,08,01,46,0.00
2011,07,08,01,47,4.80
2011,07,08,01,48,11.30
2011,07,08,01,49,9.60
2011,07,08,01,50,3.20
2011,07,08,01,51,3.20
2011,07,08,01,52,0.00
2011,07,08,01,53,11.30
2011,07,08,01,54,6.40
2011,07,08,01,55,8.10
2011,07,08,01,56,9.60
2011,07,08,01,57,9.60
2011,07,08,01,58,0.00
2011,07,08,01,59,8.10
2011,07,08,02,00,8.10
2011,07,08,02,01,9.60
2011,07,08,02,02,9.60
2011,07,08,02,03,3.20
2011,07,08,02,04,0.00
2011,07,08,02,05,9.60
2011,07,08,02,06,8.10
2011,07,08,02,07,8.10
2011,07,08,02,08,3.20
2011,07,08,02,09,4.80
2011,07,08,02,10,6.40
2011,07,08,02,11,3.20
2011,07,08,02,12,6.40
2011,07,08,02,13,1.60
2011,07,08,02,14,3.20
2011,07,08,02,15,4.80
2011,07,08,02,16,3.20
2011,07,08,02,17,0.00
2011,07,08,02,18,6.40
2011,07,08,02,19,14.50
2011,07,08,02,20,14.50
2011,07,08,02,21,14.50
2011,07,08,02,22,3.20
2011,07,08,02,23,3.20
2011,07,08,02,24,6.40
2011,07,08,02,25,3.20
2011,07,08,02,26,19.30
2011,07,08,02,27,6.40
2011,07,08,02,28,8.10
2011,07,08,02,29,3.20
2011,07,08,02,30,4.80
2011,07,08,02,31,6.40
2011,07,08,02,32,0.00
2011,07,08,02,33,0.00
2011,07,08,02,34,0.00
2011,07,08,02,35,0.00
2011,07,08,02,36,0.00
2011,07,08,02,37,0.00
2011,07,08,02,38,0.00
2011,07,08,02,39,0.00
2011,07,08,02,40,9.60
2011,07,08,02,41,3.20
2011,07,08,02,42,4.80
2011,07,08,02,43,3.20
2011,07,08,02,44,1.60
2011,07,08,02,45,1.60
2011,07,08,02,46,8.10
2011,07,08,02,47,14.50
2011,07,08,02,48,6.40
2011,07,08,02,49,4.80
2011,07,08,02,50,6.40
2011,07,08,02,51,6.40
2011,07,08,02,52,4.80
2011,07,08,02,53,6.40
2011,07,08,02,54,6.40
2011,07,08,02,55,4.80
2011,07,08,02,56,4.80
2011,07,08,02,57,4.80
2011,07,08,02,58,4.80
2011,07,08,02,59,1.60
2011,07,08,03,00,4.80
2011,07,08,03,01,4.80
2011,07,08,03,02,4.80
2011,07,08,03,03,1.60
2011,07,08,03,04,6.40
2011,07,08,03,05,4.80
2011,07,08,03,06,0.00
2011,07,08,03,07,3.20
2011,07,08,03,08,3.20
2011,07,08,03,09,3.20
2011,07,08,03,10,0.00
2011,07,08,03,11,0.00
2011,07,08,03,12,0.00
2011,07,08,03,13,3.20
2011,07,08,03,14,4.80
2011,07,08,03,15,0.00
2011,07,08,03,16,0.00
2011,07,08,03,17,0.00
2011,07,08,03,18,0.00
2011,07,08,03,19,0.00
2011,07,08,03,20,0.00
2011,07,08,03,21,0.00
2011,07,08,03,22,1.60
2011,07,08,03,23,0.00
2011,07,08,03,24,1.60
2011,07,08,03,25,6.40
2011,07,08,03,26,1.60
2011,07,08,03,27,0.00
2011,07,08,03,28,6.40
2011,07,08,03,29,3.20
2011,07,08,03,30,0.00
2011,07,08,03,31,0.00
2011,07,08,03,32,0.00
2011,07,08,03,33,0.00
2011,07,08,03,34,0.00
2011,07,08,03,35,0.00
2011,07,08,03,36,0.00
2011,07,08,03,37,0.00
2011,07,08,03,38,0.00
2011,07,08,03,39,0.00
2011,07,08,03,40,0.00
2011,07,08,03,41,0.00
2011,07,08,03,42,6.40
2011,07,08,03,43,4.80
2011,07,08,03,44,0.00
2011,07,08,03,45,0.00
2011,07,08,03,46,0.00
2011,07,08,03,47,0.00
2011,07,08,03,48,1.60
2011,07,08,03,49,0.00
2011,07,08,03,50,3.20
2011,07,08,03,51,1.60
2011,07,08,03,52,0.00
2011,07,08,03,53,1.60
2011,07,08,03,54,0.00
2011,07,08,03,55,0.00
2011,07,08,03,56,0.00
2011,07,08,03,57,0.00
2011,07,08,03,58,0.00
2011,07,08,03,59,0.00
2011,07,08,04,00,0.00
2011,07,08,04,01,0.00
2011,07,08,04,02,0.00
2011,07,08,04,03,0.00
2011,07,08,04,04,0.00
2011,07,08,04,05,0.00
2011,07,08,04,06,0.00
2011,07,08,04,07,0.00
2011,07,08,04,08,0.00
2011,07,08,04,09,1.60
2011,07,08,04,10,0.00
2011,07,08,04,11,0.00
2011,07,08,04,12,0.00
2011,07,08,04,13,3.20
2011,07,08,04,14,0.00
2011,07,08,04,15,0.00
2011,07,08,04,16,0.00
2011,07,08,04,17,0.00
2011,07,08,04,18,0.00
2011,07,08,04,19,0.00
2011,07,08,04,20,0.00
2011,07,08,04,21,0.00
2011,07,08,04,22,1.60
2011,07,08,04,23,6.40
2011,07,08,04,24,3.20
2011,07,08,04,25,0.00
2011,07,08,04,26,4.80
2011,07,08,04,27,3.20
2011,07,08,04,28,6.40
2011,07,08,04,29,0.00
2011,07,08,04,30,0.00
2011,07,08,04,31,3.20
2011,07,08,04,32,3.20
2011,07,08,04,33,6.40
2011,07,08,04,34,0.00
2011,07,08,04,35,1.60
2011,07,08,04,36,6.40
2011,07,08,04,37,0.00
2011,07,08,04,38,0.00
2011,07,08,04,39,1.60
2011,07,08,04,40,0.00
2011,07,08,04,41,0.00
2011,07,08,04,42,0.00
2011,07,08,04,43,3.20
2011,07,08,04,44,3.20
2011,07,08,04,45,0.00
2011,07,08,04,46,0.00
2011,07,08,04,47,3.20
2011,07,08,04,48,4.80
2011,07,08,04,49,1.60
2011,07,08,04,50,0.00
2011,07,08,04,51,1.60
2011,07,08,04,52,1.60
2011,07,08,04,53,0.00
2011,07,08,04,54,6.40
2011,07,08,04,55,3.20
2011,07,08,04,56,0.00
2011,07,08,04,57,0.00
2011,07,08,04,58,0.00
2011,07,08,04,59,1.60
2011,07,08,05,00,3.20
2011,07,08,05,01,3.20
2011,07,08,05,02,3.20
2011,07,08,05,03,1.60
2011,07,08,05,04,0.00
2011,07,08,05,05,0.00
2011,07,08,05,06,1.60
2011,07,08,05,07,0.00
2011,07,08,05,08,0.00
2011,07,08,05,09,4.80
2011,07,08,05,10,1.60
2011,07,08,05,11,0.00
2011,07,08,05,12,4.80
2011,07,08,05,13,3.20
2011,07,08,05,14,0.00
2011,07,08,05,15,0.00
2011,07,08,05,16,0.00
2011,07,08,05,17,0.00
2011,07,08,05,18,0.00
2011,07,08,05,19,0.00
2011,07,08,05,20,0.00
2011,07,08,05,21,1.60
2011,07,08,05,22,4.80
2011,07,08,05,23,0.00
2011,07,08,05,24,0.00
2011,07,08,05,25,0.00
2011,07,08,05,26,0.00
2011,07,08,05,27,0.00
2011,07,08,05,28,0.00
2011,07,08,05,29,1.60
2011,07,08,05,30,0.00
2011,07,08,05,31,1.60
2011,07,08,05,32,0.00
2011,07,08,05,33,0.00
2011,07,08,05,34,0.00
2011,07,08,05,35,6.40
2011,07,08,05,36,3.20
2011,07,08,05,37,4.80
2011,07,08,05,38,11.30
2011,07,08,05,39,6.40
2011,07,08,05,40,6.40
2011,07,08,05,41,4.80
2011,07,08,05,42,4.80
2011,07,08,05,43,8.10
2011,07,08,05,44,8.10
2011,07,08,05,45,6.40
2011,07,08,05,46,6.40
2011,07,08,05,47,6.40
2011,07,08,05,48,3.20
2011,07,08,05,49,4.80
2011,07,08,05,50,0.00
2011,07,08,05,51,3.20
2011,07,08,05,52,6.40
2011,07,08,05,53,8.10
2011,07,08,05,54,0.00
2011,07,08,05,55,6.40
2011,07,08,05,56,6.40
2011,07,08,05,57,3.20
2011,07,08,05,58,0.00
2011,07,08,05,59,0.00
2011,07,08,06,00,4.80
2011,07,08,06,01,1.60
2011,07,08,06,02,1.60
2011,07,08,06,03,0.00
2011,07,08,06,04,0.00
2011,07,08,06,05,0.00
2011,07,08,06,06,0.00
2011,07,08,06,07,4.80
2011,07,08,06,08,11.30
2011,07,08,06,09,9.60
2011,07,08,06,10,1.60
2011,07,08,06,11,1.60
2011,07,08,06,12,0.00
2011,07,08,06,13,0.00
2011,07,08,06,14,0.00
2011,07,08,06,15,0.00
2011,07,08,06,16,0.00
2011,07,08,06,17,3.20
2011,07,08,06,18,3.20
2011,07,08,06,19,1.60
2011,07,08,06,20,1.60
2011,07,08,06,21,1.60
2011,07,08,06,22,0.00
2011,07,08,06,23,0.00
2011,07,08,06,24,0.00
2011,07,08,06,25,0.00
2011,07,08,06,26,0.00
2011,07,08,06,27,0.00
2011,07,08,06,28,3.20
2011,07,08,06,29,3.20
2011,07,08,06,30,0.00
2011,07,08,06,31,0.00
2011,07,08,06,32,0.00
2011,07,08,06,33,0.00
2011,07,08,06,34,0.00
2011,07,08,06,35,0.00
2011,07,08,06,36,0.00
2011,07,08,06,37,0.00
2011,07,08,06,38,0.00
2011,07,08,06,39,0.00
2011,07,08,06,40,0.00
2011,07,08,06,41,0.00
2011,07,08,06,42,0.00
2011,07,08,06,43,0.00
2011,07,08,06,44,3.20
2011,07,08,06,45,1.60
2011,07,08,06,46,0.00
2011,07,08,06,47,0.00
2011,07,08,06,48,0.00
2011,07,08,06,49,0.00
2011,07,08,06,50,0.00
2011,07,08,06,51,0.00
2011,07,08,06,52,0.00
2011,07,08,06,53,4.80
2011,07,08,06,54,1.60
2011,07,08,06,55,0.00
2011,07,08,06,56,0.00
2011,07,08,06,57,0.00
2011,07,08,06,58,0.00
2011,07,08,06,59,0.00
2011,07,08,07,00,1.60
2011,07,08,07,01,0.00
2011,07,08,07,02,4.80
2011,07,08,07,03,8.10
2011,07,08,07,04,1.60
2011,07,08,07,05,3.20
2011,07,08,07,06,0.00
2011,07,08,07,07,4.80
2011,07,08,07,08,4.80
2011,07,08,07,09,4.80
2011,07,08,07,10,0.00
2011,07,08,07,11,0.00
2011,07,08,07,12,0.00
2011,07,08,07,13,0.00
2011,07,08,07,14,1.60
2011,07,08,07,15,0.00
2011,07,08,07,16,0.00
2011,07,08,07,17,0.00
2011,07,08,07,18,0.00
2011,07,08,07,19,0.00
2011,07,08,07,20,0.00
2011,07,08,07,21,0.00
2011,07,08,07,22,0.00
2011,07,08,07,23,0.00
2011,07,08,07,24,0.00
2011,07,08,07,25,0.00
2011,07,08,07,26,3.20
2011,07,08,07,27,3.20
2011,07,08,07,28,1.60
2011,07,08,07,29,0.00
2011,07,08,07,30,0.00
2011,07,08,07,31,1.60
2011,07,08,07,32,0.00
2011,07,08,07,33,0.00
2011,07,08,07,34,0.00
2011,07,08,07,35,1.60
2011,07,08,07,36,6.40
2011,07,08,07,37,3.20
2011,07,08,07,38,6.40
2011,07,08,07,39,0.00
2011,07,08,07,40,1.60
2011,07,08,07,41,3.20
2011,07,08,07,42,0.00
2011,07,08,07,43,0.00
2011,07,08,07,44,0.00
2011,07,08,07,45,0.00
2011,07,08,07,46,1.60
2011,07,08,07,47,1.60
2011,07,08,07,48,0.00
2011,07,08,07,49,0.00
2011,07,08,07,50,6.40
2011,07,08,07,51,4.80
2011,07,08,07,52,4.80
2011,07,08,07,53,6.40
2011,07,08,07,54,4.80
2011,07,08,07,55,3.20
2011,07,08,07,56,1.60
2011,07,08,07,57,4.80
2011,07,08,07,58,4.80
2011,07,08,07,59,1.60
2011,07,08,08,00,0.00
2011,07,08,08,01,0.00
2011,07,08,08,02,3.20
2011,07,08,08,03,4.80
2011,07,08,08,04,1.60
2011,07,08,08,05,9.60
2011,07,08,08,06,4.80
2011,07,08,08,07,0.00
2011,07,08,08,08,3.20
2011,07,08,08,09,6.40
2011,07,08,08,10,8.10
2011,07,08,08,11,8.10
2011,07,08,08,12,1.60
2011,07,08,08,13,1.60
2011,07,08,08,14,4.80
2011,07,08,08,15,1.60
2011,07,08,08,16,3.20
2011,07,08,08,17,0.00
2011,07,08,08,18,4.80
2011,07,08,08,19,4.80
2011,07,08,08,20,0.00
2011,07,08,08,21,0.00
2011,07,08,08,22,4.80
2011,07,08,08,23,4.80
2011,07,08,08,24,3.20
2011,07,08,08,25,1.60
2011,07,08,08,26,1.60
2011,07,08,08,27,0.00
2011,07,08,08,28,0.00
2011,07,08,08,29,0.00
2011,07,08,08,30,1.60
2011,07,08,08,31,1.60
2011,07,08,08,32,0.00
2011,07,08,08,33,0.00
2011,07,08,08,34,0.00
2011,07,08,08,35,0.00
2011,07,08,08,36,0.00
2011,07,08,08,37,1.60
2011,07,08,08,38,8.10
2011,07,08,08,39,6.40
2011,07,08,08,40,8.10
2011,07,08,08,41,4.80
2011,07,08,08,42,4.80
2011,07,08,08,43,3.20
2011,07,08,08,44,3.20
2011,07,08,08,45,0.00
2011,07,08,08,46,0.00
2011,07,08,08,47,0.00
2011,07,08,08,48,0.00
2011,07,08,08,49,4.80
2011,07,08,08,50,1.60
2011,07,08,08,51,6.40
2011,07,08,08,52,6.40
2011,07,08,08,53,1.60
2011,07,08,08,54,4.80
2011,07,08,08,55,1.60
2011,07,08,08,56,0.00
2011,07,08,08,57,3.20
2011,07,08,08,58,6.40
2011,07,08,08,59,6.40
2011,07,08,09,00,0.00
2011,07,08,09,01,6.40
2011,07,08,09,02,4.80
2011,07,08,09,03,0.00
2011,07,08,09,04,0.00
2011,07,08,09,05,0.00
2011,07,08,09,06,3.20
2011,07,08,09,07,4.80
2011,07,08,09,08,3.20
2011,07,08,09,09,1.60
2011,07,08,09,10,3.20
2011,07,08,09,11,4.80
2011,07,08,09,12,3.20
2011,07,08,09,13,1.60
2011,07,08,09,14,1.60
2011,07,08,09,15,1.60
2011,07,08,09,16,3.20
2011,07,08,09,17,3.20
2011,07,08,09,18,1.60
2011,07,08,09,19,9.60
2011,07,08,09,20,8.10
2011,07,08,09,21,6.40
2011,07,08,09,22,6.40
2011,07,08,09,23,6.40
2011,07,08,09,24,1.60
2011,07,08,09,25,1.60
2011,07,08,09,26,0.00
2011,07,08,09,27,4.80
2011,07,08,09,28,3.20
2011,07,08,09,29,4.80
2011,07,08,09,30,1.60
2011,07,08,09,31,4.80
2011,07,08,09,32,3.20
2011,07,08,09,33,6.40
2011,07,08,09,34,0.00
2011,07,08,09,35,0.00
2011,07,08,09,36,6.40
2011,07,08,09,37,8.10
2011,07,08,09,38,8.10
2011,07,08,09,39,6.40
2011,07,08,09,40,6.40
2011,07,08,09,41,3.20
2011,07,08,09,42,6.40
2011,07,08,09,43,6.40
2011,07,08,09,44,4.80
2011,07,08,09,45,0.00
2011,07,08,09,46,6.40
2011,07,08,09,47,6.40
2011,07,08,09,48,1.60
2011,07,08,09,49,0.00
2011,07,08,09,50,1.60
2011,07,08,09,51,1.60
2011,07,08,09,52,0.00
2011,07,08,09,53,0.00
2011,07,08,09,54,0.00
2011,07,08,09,55,0.00
2011,07,08,09,56,0.00
2011,07,08,09,57,0.00
2011,07,08,09,58,0.00
2011,07,08,09,59,3.20
2011,07,08,10,00,6.40
2011,07,08,10,01,6.40
2011,07,08,10,02,4.80
2011,07,08,10,03,9.60
2011,07,08,10,04,4.80
2011,07,08,10,05,4.80
2011,07,08,10,06,4.80
2011,07,08,10,07,0.00
2011,07,08,10,08,0.00
2011,07,08,10,09,4.80
2011,07,08,10,10,4.80
2011,07,08,10,11,0.00
2011,07,08,10,12,0.00
2011,07,08,10,13,0.00
2011,07,08,10,14,3.20
2011,07,08,10,15,1.60
2011,07,08,10,16,0.00
2011,07,08,10,17,0.00
2011,07,08,10,18,8.10
2011,07,08,10,19,8.10
2011,07,08,10,20,9.60
2011,07,08,10,21,8.10
2011,07,08,10,22,8.10
2011,07,08,10,23,6.40
2011,07,08,10,24,6.40
2011,07,08,10,25,4.80
2011,07,08,10,26,8.10
2011,07,08,10,27,8.10
2011,07,08,10,28,11.30
2011,07,08,10,29,4.80
2011,07,08,10,30,4.80
2011,07,08,10,31,4.80
2011,07,08,10,32,4.80
2011,07,08,10,33,3.20
2011,07,08,10,34,6.40
2011,07,08,10,35,6.40
2011,07,08,10,36,8.10
2011,07,08,10,37,4.80
2011,07,08,10,38,17.70
2011,07,08,10,39,8.10
2011,07,08,10,40,9.60
2011,07,08,10,41,8.10
2011,07,08,10,42,1.60
2011,07,08,10,43,3.20
2011,07,08,10,44,8.10
2011,07,08,10,45,9.60
2011,07,08,10,46,4.80
2011,07,08,10,47,6.40
2011,07,08,10,48,11.30
2011,07,08,10,49,9.60
2011,07,08,10,50,6.40
2011,07,08,10,51,8.10
2011,07,08,10,52,4.80
2011,07,08,10,53,11.30
2011,07,08,10,54,8.10
2011,07,08,10,55,11.30
2011,07,08,10,56,8.10
2011,07,08,10,57,14.50
2011,07,08,10,58,3.20
2011,07,08,10,59,6.40
2011,07,08,11,00,4.80
2011,07,08,11,01,6.40
2011,07,08,11,02,3.20
2011,07,08,11,03,16.10
2011,07,08,11,04,16.10
2011,07,08,11,05,8.10
2011,07,08,11,06,8.10
2011,07,08,11,07,6.40
2011,07,08,11,08,16.10
2011,07,08,11,09,17.70
2011,07,08,11,10,9.60
2011,07,08,11,11,11.30
2011,07,08,11,12,8.10
2011,07,08,11,13,12.90
2011,07,08,11,14,11.30
2011,07,08,11,15,11.30
2011,07,08,11,16,6.40
2011,07,08,11,17,9.60
2011,07,08,11,18,6.40
2011,07,08,11,19,3.20
2011,07,08,11,20,4.80
2011,07,08,11,21,14.50
2011,07,08,11,22,9.60
2011,07,08,11,23,11.30
2011,07,08,11,24,6.40
2011,07,08,11,25,3.20
2011,07,08,11,26,3.20
2011,07,08,11,27,14.50
2011,07,08,11,28,11.30
2011,07,08,11,29,17.70
2011,07,08,11,30,16.10
2011,07,08,11,31,14.50
2011,07,08,11,32,14.50
2011,07,08,11,33,11.30
2011,07,08,11,34,16.10
2011,07,08,11,35,9.60
2011,07,08,11,36,8.10
2011,07,08,11,37,11.30
2011,07,08,11,38,9.60
2011,07,08,11,39,9.60
2011,07,08,11,40,16.10
2011,07,08,11,41,14.50
2011,07,08,11,42,8.10
2011,07,08,11,43,12.90
2011,07,08,11,44,11.30
2011,07,08,11,45,4.80
2011,07,08,11,46,6.40
2011,07,08,11,47,9.60
2011,07,08,11,48,4.80
2011,07,08,11,49,4.80
2011,07,08,11,50,8.10
2011,07,08,11,51,9.60
2011,07,08,11,52,6.40
2011,07,08,11,53,8.10
2011,07,08,11,54,12.90
2011,07,08,11,55,9.60
2011,07,08,11,56,9.60
2011,07,08,11,57,8.10
2011,07,08,11,58,3.20
2011,07,08,11,59,11.30
2011,07,08,12,00,6.40
2011,07,08,12,01,3.20
2011,07,08,12,02,1.60
2011,07,08,12,03,4.80
2011,07,08,12,04,3.20
2011,07,08,12,05,11.30
2011,07,08,12,06,17.70
2011,07,08,12,07,9.60
2011,07,08,12,08,6.40
2011,07,08,12,09,0.00
2011,07,08,12,10,3.20
2011,07,08,12,11,6.40
2011,07,08,12,12,6.40
2011,07,08,12,13,8.10
2011,07,08,12,14,14.50
2011,07,08,12,15,9.60
2011,07,08,12,16,6.40
2011,07,08,12,17,6.40
2011,07,08,12,18,9.60
2011,07,08,12,19,9.60
2011,07,08,12,20,4.80
2011,07,08,12,21,1.60
2011,07,08,12,22,6.40
2011,07,08,12,23,0.00
2011,07,08,12,24,9.60
2011,07,08,12,25,9.60
2011,07,08,12,26,6.40
2011,07,08,12,27,3.20
2011,07,08,12,28,8.10
2011,07,08,12,29,17.70
2011,07,08,12,30,11.30
2011,07,08,12,31,11.30
2011,07,08,12,32,14.50
2011,07,08,12,33,8.10
2011,07,08,12,34,8.10
2011,07,08,12,35,9.60
2011,07,08,12,36,8.10
2011,07,08,12,37,9.60
2011,07,08,12,38,3.20
2011,07,08,12,39,0.00
2011,07,08,12,40,9.60
2011,07,08,12,41,16.10
2011,07,08,12,42,11.30
2011,07,08,12,43,19.30
2011,07,08,12,44,3.20
2011,07,08,12,45,8.10
2011,07,08,12,46,11.30
2011,07,08,12,47,8.10
2011,07,08,12,48,6.40
2011,07,08,12,49,4.80
2011,07,08,12,50,6.40
2011,07,08,12,51,4.80
2011,07,08,12,52,3.20
2011,07,08,12,53,3.20
2011,07,08,12,54,6.40
2011,07,08,12,55,11.30
2011,07,08,12,56,8.10
2011,07,08,12,57,16.10
2011,07,08,12,58,8.10
2011,07,08,12,59,6.40
2011,07,08,13,00,6.40
2011,07,08,13,01,6.40
2011,07,08,13,02,11.30
2011,07,08,13,03,16.10
2011,07,08,13,04,9.60
2011,07,08,13,05,4.80
2011,07,08,13,06,1.60
2011,07,08,13,07,8.10
2011,07,08,13,08,4.80
2011,07,08,13,09,3.20
2011,07,08,13,10,8.10
2011,07,08,13,11,16.10
2011,07,08,13,12,8.10
2011,07,08,13,13,6.40
2011,07,08,13,14,4.80
2011,07,08,13,15,3.20
2011,07,08,13,16,6.40
2011,07,08,13,17,6.40
2011,07,08,13,18,8.10
2011,07,08,13,19,11.30
2011,07,08,13,20,11.30
2011,07,08,13,21,8.10
2011,07,08,13,22,11.30
2011,07,08,13,23,11.30
2011,07,08,13,24,9.60
2011,07,08,13,25,4.80
2011,07,08,13,26,17.70
2011,07,08,13,27,12.90
2011,07,08,13,28,11.30
2011,07,08,13,29,8.10
2011,07,08,13,30,6.40
2011,07,08,13,31,6.40
2011,07,08,13,32,9.60
2011,07,08,13,33,4.80
2011,07,08,13,34,6.40
2011,07,08,13,35,8.10
2011,07,08,13,36,8.10
2011,07,08,13,37,3.20
2011,07,08,13,38,3.20
2011,07,08,13,39,1.60
2011,07,08,13,40,6.40
2011,07,08,13,41,11.30
2011,07,08,13,42,4.80
2011,07,08,13,43,3.20
2011,07,08,13,44,8.10
2011,07,08,13,45,9.60
2011,07,08,13,46,12.90
2011,07,08,13,47,3.20
2011,07,08,13,48,3.20
2011,07,08,13,49,17.70
2011,07,08,13,50,11.30
2011,07,08,13,51,9.60
2011,07,08,13,52,17.70
2011,07,08,13,53,9.60
2011,07,08,13,54,6.40
2011,07,08,13,55,8.10
2011,07,08,13,56,11.30
2011,07,08,13,57,6.40
2011,07,08,13,58,8.10
2011,07,08,13,59,4.80
2011,07,08,14,00,4.80
2011,07,08,14,01,0.00
2011,07,08,14,02,6.40
2011,07,08,14,03,3.20
2011,07,08,14,04,6.40
2011,07,08,14,05,4.80
2011,07,08,14,06,1.60
2011,07,08,14,07,11.30
2011,07,08,14,08,16.10
2011,07,08,14,09,9.60
2011,07,08,14,10,11.30
2011,07,08,14,11,9.60
2011,07,08,14,12,4.80
2011,07,08,14,13,8.10
2011,07,08,14,14,9.60
2011,07,08,14,15,9.60
2011,07,08,14,16,4.80
2011,07,08,14,17,8.10
2011,07,08,14,18,16.10
2011,07,08,14,19,6.40
2011,07,08,14,20,4.80
2011,07,08,14,21,1.60
2011,07,08,14,22,11.30
2011,07,08,14,23,11.30
2011,07,08,14,24,3.20
2011,07,08,14,25,4.80
2011,07,08,14,26,3.20
2011,07,08,14,27,6.40
2011,07,08,14,28,4.80
2011,07,08,14,29,4.80
2011,07,08,14,30,3.20
2011,07,08,14,31,4.80
2011,07,08,14,32,4.80
2011,07,08,14,33,4.80
2011,07,08,14,34,3.20
2011,07,08,14,35,3.20
2011,07,08,14,36,1.60
2011,07,08,14,37,1.60
2011,07,08,14,38,0.00
2011,07,08,14,39,3.20
2011,07,08,14,40,3.20
2011,07,08,14,41,3.20
2011,07,08,14,42,3.20
2011,07,08,14,43,6.40
2011,07,08,14,44,1.60
2011,07,08,14,45,0.00
2011,07,08,14,46,6.40
2011,07,08,14,47,4.80
2011,07,08,14,48,1.60
2011,07,08,14,49,1.60
2011,07,08,14,50,1.60
2011,07,08,14,51,3.20
2011,07,08,14,52,3.20
2011,07,08,14,53,0.00
2011,07,08,14,54,1.60
2011,07,08,14,55,3.20
2011,07,08,14,56,1.60
2011,07,08,14,57,1.60
2011,07,08,14,58,3.20
2011,07,08,14,59,1.60
2011,07,08,15,00,1.60
2011,07,08,15,01,0.00
2011,07,08,15,02,1.60
2011,07,08,15,03,0.00
2011,07,08,15,04,0.00
2011,07,08,15,05,3.20
2011,07,08,15,06,1.60
2011,07,08,15,07,0.00
2011,07,08,15,08,1.60
2011,07,08,15,09,1.60
2011,07,08,15,10,1.60
2011,07,08,15,11,3.20
2011,07,08,15,12,0.00
2011,07,08,15,13,1.60
2011,07,08,15,14,4.80
2011,07,08,15,15,3.20
2011,07,08,15,16,1.60
2011,07,08,15,17,0.00
2011,07,08,15,18,1.60
2011,07,08,15,19,1.60
2011,07,08,15,20,1.60
2011,07,08,15,21,1.60
2011,07,08,15,22,1.60
2011,07,08,15,23,1.60
2011,07,08,15,24,0.00
2011,07,08,15,25,0.00
2011,07,08,15,26,3.20
2011,07,08,15,27,1.60
2011,07,08,15,28,0.00
2011,07,08,15,29,0.00
2011,07,08,15,55,1.60
2011,07,08,15,56,0.00
2011,07,08,15,57,0.00
2011,07,08,15,58,0.00
2011,07,08,15,59,0.00
2011,07,08,16,00,0.00
2011,07,08,16,01,0.00
2011,07,08,16,02,0.00
2011,07,08,16,03,0.00
2011,07,08,16,04,0.00
2011,07,08,16,05,0.00
2011,07,08,16,06,4.80
2011,07,08,16,07,4.80
2011,07,08,16,08,4.80
2011,07,08,16,09,4.80
2011,07,08,16,10,1.60
2011,07,08,16,11,1.60
2011,07,08,16,12,3.20
2011,07,08,16,13,1.60
2011,07,08,16,14,0.00
2011,07,08,16,15,3.20
2011,07,08,16,16,3.20
2011,07,08,16,17,0.00
2011,07,08,16,18,1.60
2011,07,08,16,19,1.60
2011,07,08,16,20,0.00
2011,07,08,16,21,0.00
2011,07,08,16,22,0.00
2011,07,08,16,23,3.20
2011,07,08,16,24,0.00
2011,07,08,16,25,1.60
2011,07,08,16,26,0.00
2011,07,08,16,27,0.00
2011,07,08,16,28,0.00
2011,07,08,16,29,0.00
2011,07,08,16,30,0.00
2011,07,08,16,31,1.60
2011,07,08,16,32,3.20
2011,07,08,16,33,1.60
2011,07,08,16,34,0.00
2011,07,08,16,35,0.00
2011,07,08,16,36,0.00
2011,07,08,16,37,1.60
2011,07,08,16,38,0.00
2011,07,08,16,39,0.00
2011,07,08,16,40,3.20
2011,07,08,16,41,1.60
2011,07,08,16,42,1.60
2011,07,08,16,43,1.60
2011,07,08,16,44,0.00
2011,07,08,16,45,6.40
2011,07,08,16,46,3.20
2011,07,08,16,47,4.80
2011,07,08,16,48,3.20
2011,07,08,16,49,0.00
2011,07,08,16,50,0.00
2011,07,08,16,51,1.60
2011,07,08,16,52,3.20
2011,07,08,16,53,0.00
2011,07,08,16,54,3.20
2011,07,08,16,55,6.40
2011,07,08,16,56,3.20
2011,07,08,16,57,1.60
2011,07,08,16,58,4.80
2011,07,08,16,59,1.60
2011,07,08,17,00,1.60
2011,07,08,17,01,3.20
2011,07,08,17,02,1.60
2011,07,08,17,03,3.20
2011,07,08,17,04,0.00
2011,07,08,17,05,1.60
2011,07,08,17,06,3.20
2011,07,08,17,07,0.00
2011,07,08,17,08,1.60
2011,07,08,17,09,1.60
2011,07,08,17,10,0.00
2011,07,08,17,11,0.00
2011,07,08,17,12,0.00
2011,07,08,17,13,0.00
2011,07,08,17,14,0.00
2011,07,08,17,15,3.20
2011,07,08,17,16,1.60
2011,07,08,17,17,0.00
2011,07,08,17,18,0.00
2011,07,08,17,19,0.00
2011,07,08,17,20,0.00
2011,07,08,17,21,1.60
2011,07,08,17,22,0.00
2011,07,08,17,23,0.00
2011,07,08,17,24,0.00
2011,07,08,17,25,0.00
2011,07,08,17,26,0.00
2011,07,08,17,27,0.00
2011,07,08,17,28,3.20
2011,07,08,17,29,0.00
2011,07,08,17,30,0.00
2011,07,08,17,31,0.00
2011,07,08,17,32,0.00
2011,07,08,17,33,0.00
2011,07,08,17,34,0.00
2011,07,08,17,35,0.00
2011,07,08,17,36,0.00
2011,07,08,17,37,0.00
2011,07,08,17,38,0.00
2011,07,08,17,39,0.00
2011,07,08,17,40,0.00
2011,07,08,17,41,0.00
2011,07,08,17,42,0.00
2011,07,08,17,43,0.00
2011,07,08,17,44,0.00
2011,07,08,17,45,0.00
2011,07,08,17,46,0.00
2011,07,08,17,47,0.00
2011,07,08,17,48,0.00
2011,07,08,17,49,0.00
2011,07,08,17,50,0.00
2011,07,08,17,51,0.00
2011,07,08,17,52,0.00
2011,07,08,17,53,0.00
2011,07,08,17,54,0.00
2011,07,08,17,55,0.00
2011,07,08,17,56,0.00
2011,07,08,17,57,0.00
2011,07,08,17,58,0.00
2011,07,08,17,59,0.00
2011,07,08,18,00,0.00
2011,07,08,18,01,0.00
2011,07,08,18,02,0.00
2011,07,08,18,03,1.60
2011,07,08,18,04,1.60
2011,07,08,18,05,0.00
2011,07,08,18,06,0.00
2011,07,08,18,07,0.00
2011,07,08,18,08,0.00
2011,07,08,18,09,0.00
2011,07,08,18,10,0.00
2011,07,08,18,11,0.00
2011,07,08,18,12,0.00
2011,07,08,18,13,4.80
2011,07,08,18,14,14.50
2011,07,08,18,15,3.20
2011,07,08,18,16,0.00
2011,07,08,18,17,6.40
2011,07,08,18,18,4.80
2011,07,08,18,19,3.20
2011,07,08,18,20,0.00
2011,07,08,18,21,8.10
2011,07,08,18,22,9.60
2011,07,08,18,23,8.10
2011,07,08,18,24,9.60
2011,07,08,18,25,3.20
2011,07,08,18,26,6.40